Total_Precipitation_Accumulation
0.00 0.00 0.00 0.00 0.00 0.00 0.00 0.00 0.00 0.00 0.01 0.01 0.04 0.05 0.07 0.07 0.08 0.12 0.20 0.30 0.41 0.46 0.63 0.96 1.18 1.55 1.87 1.78 1.80 1.69 1.64 1.74 1.79 1.84 1.89 2.09 2.07 2.10 2.34 2.60 2.77 2.95 3.00 2.83
0.00 0.00 0.00 0.00 0.00 0.00 0.00 0.00 0.01 0.02 0.02 0.03 0.05 0.09 0.12 0.11 0.14 0.22 0.37 0.47 0.66 0.79 0.83 1.04 1.32 1.63 1.87 1.88 1.85 1.87 1.96 2.02 2.13 2.40 2.76 3.11 3.32 3.47 3.58 3.75 3.81 3.74 3.59 3.43
0.00 0.00 0.00 0.00 0.00 0.00 0.00 0.00 0.02 0.04 0.07 0.08 0.10 0.19 0.24 0.20 0.18 0.24 0.44 0.53 0.65 0.82 0.95 0.95 1.03 1.23 1.53 1.73 1.87 1.95 2.21 2.48 2.78 3.25 3.75 4.13 4.46 4.64 4.59 4.41 4.24 4.02 3.83 3.63
0.00 0.00 0.00 0.00 0.00 0.00 0.01 0.00 0.02 0.03 0.07 0.16 0.16 0.32 0.39 0.32 0.28 0.28 0.34 0.38 0.47 0.52 0.64 0.79 0.91 1.04 1.28 1.50 1.73 1.97 2.28 2.77 3.38 4.07 4.63 5.04 5.22 5.20 5.10 4.87 4.49 4.07 3.76 3.44
0.00 0.00 0.00 0.00 0.00 0.00 0.00 0.00 0.01 0.04 0.05 0.13 0.15 0.35 0.53 0.46 0.40 0.38 0.38 0.36 0.37 0.42 0.46 0.61 0.73 0.90 1.12 1.32 1.62 1.98 2.41 3.04 3.63 4.20 4.71 5.10 5.22 5.10 4.85 4.45 4.00 3.54 3.13 2.81
0.00 0.00 0.00 0.00 0.00 0.00 0.00 0.00 0.02 0.05 0.07 0.16 0.15 0.28 0.59 0.72 0.62 0.56 0.49 0.48 0.45 0.47 0.53 0.57 0.61 0.73 0.92 1.17 1.50 1.86 2.26 2.79 3.26 3.63 4.07 4.32 4.45 4.37 4.06 3.61 3.09 2.64 2.33 2.07
0.01 0.01 0.00 0.00 0.00 0.00 0.00 0.01 0.05 0.10 0.12 0.18 0.16 0.33 0.67 0.89 0.82 0.74 0.62 0.53 0.47 0.49 0.53 0.56 0.60 0.65 0.79 1.03 1.33 1.56 1.83 2.20 2.51 2.84 3.19 3.35 3.31 3.15 2.94 2.65 2.33 2.01 1.71 1.46
0.05 0.02 0.00 0.00 0.00 0.00 0.00 0.01 0.06 0.12 0.13 0.20 0.31 0.53 0.75 0.84 0.77 0.67 0.57 0.46 0.41 0.41 0.44 0.52 0.65 0.70 0.80 0.91 1.09 1.26 1.38 1.55 1.70 1.83 1.99 2.04 1.98 1.87 1.81 1.68 1.49 1.29 1.06 0.84
0.10 0.05 0.01 0.00 0.00 0.00 0.00 0.01 0.02 0.04 0.07 0.19 0.45 0.71 0.90 0.87 0.80 0.60 0.49 0.40 0.40 0.39 0.39 0.45 0.56 0.68 0.74 0.76 0.81 0.83 0.83 0.88 0.91 0.93 1.03 1.09 1.09 1.05 1.00 0.92 0.82 0.74 0.66 0.57
0.09 0.07 0.02 0.01 0.00 0.00 0.01 0.01 0.01 0.04 0.13 0.25 0.43 0.71 1.01 1.19 1.14 0.88 0.68 0.54 0.48 0.43 0.45 0.49 0.53 0.57 0.60 0.58 0.56 0.54 0.57 0.56 0.51 0.49 0.51 0.54 0.58 0.57 0.54 0.52 0.50 0.47 0.43 0.38
0.07 0.07 0.04 0.02 0.02 0.02 0.01 0.02 0.02 0.06 0.10 0.24 0.52 0.88 1.03 1.29 1.30 1.11 0.87 0.68 0.59 0.58 0.59 0.60 0.60 0.54 0.52 0.51 0.47 0.44 0.46 0.43 0.39 0.36 0.36 0.34 0.32 0.31 0.29 0.28 0.28 0.26 0.24 0.21
0.05 0.10 0.08 0.05 0.03 0.02 0.03 0.03 0.03 0.07 0.09 0.14 0.45 1.05 1.25 1.46 1.44 1.27 1.16 1.02 0.88 0.83 0.79 0.74 0.67 0.56 0.51 0.47 0.44 0.39 0.38 0.34 0.32 0.28 0.24 0.22 0.20 0.19 0.19 0.18 0.17 0.16 0.15 0.14
0.04 0.15 0.20 0.23 0.19 0.09 0.05 0.04 0.04 0.04 0.09 0.19 0.45 1.05 1.33 1.43 1.40 1.28 1.13 1.12 1.18 1.21 1.09 0.89 0.72 0.57 0.45 0.39 0.40 0.39 0.35 0.32 0.28 0.25 0.22 0.20 0.18 0.16 0.15 0.15 0.14 0.14 0.13 0.12
0.05 0.14 0.27 0.46 0.40 0.17 0.08 0.06 0.06 0.06 0.15 0.29 0.48 0.84 1.09 1.21 1.22 1.24 1.25 1.35 1.40 1.22 0.93 0.71 0.60 0.51 0.45 0.41 0.39 0.35 0.31 0.28 0.24 0.22 0.20 0.21 0.21 0.18 0.16 0.15 0.14 0.11 0.09 0.08
0.07 0.15 0.18 0.20 0.19 0.13 0.11 0.09 0.10 0.11 0.15 0.30 0.53 0.83 1.12 1.24 1.27 1.29 1.43 1.46 1.28 1.07 0.90 0.75 0.64 0.59 0.54 0.46 0.38 0.31 0.28 0.23 0.20 0.20 0.19 0.19 0.19 0.17 0.14 0.13 0.11 0.08 0.06 0.05
0.08 0.17 0.15 0.17 0.17 0.19 0.20 0.19 0.21 0.21 0.27 0.40 0.64 0.93 1.14 1.26 1.34 1.37 1.42 1.40 1.36 1.27 1.11 0.95 0.82 0.72 0.62 0.52 0.43 0.38 0.34 0.29 0.23 0.21 0.19 0.16 0.14 0.14 0.12 0.10 0.09 0.08 0.07 0.06
0.09 0.15 0.20 0.24 0.16 0.24 0.37 0.27 0.23 0.25 0.34 0.48 0.67 0.87 0.92 0.97 1.13 1.27 1.39 1.37 1.36 1.32 1.24 1.11 1.01 0.90 0.78 0.65 0.55 0.49 0.45 0.36 0.29 0.24 0.22 0.20 0.16 0.14 0.12 0.08 0.08 0.07 0.07 0.07
0.10 0.17 0.19 0.23 0.26 0.47 0.46 0.27 0.25 0.29 0.37 0.39 0.46 0.58 0.68 0.75 0.85 0.97 1.08 1.23 1.33 1.33 1.26 1.17 1.04 0.92 0.84 0.71 0.59 0.50 0.41 0.32 0.28 0.27 0.24 0.20 0.17 0.15 0.12 0.08 0.07 0.06 0.07 0.07
0.06 0.14 0.23 0.26 0.36 0.49 0.46 0.28 0.25 0.39 0.49 0.36 0.35 0.39 0.46 0.53 0.64 0.85 0.97 1.11 1.25 1.26 1.20 1.13 1.03 0.94 0.83 0.69 0.55 0.44 0.37 0.31 0.29 0.26 0.20 0.16 0.14 0.12 0.09 0.08 0.07 0.07 0.08 0.08
0.05 0.10 0.23 0.31 0.45 0.57 0.53 0.23 0.16 0.35 0.70 0.53 0.43 0.43 0.52 0.63 0.73 0.74 0.69 0.75 0.93 1.09 1.13 1.09 0.98 0.82 0.69 0.54 0.39 0.32 0.29 0.25 0.22 0.16 0.12 0.10 0.10 0.08 0.07 0.08 0.08 0.09 0.09 0.09
0.15 0.18 0.24 0.34 0.52 0.59 0.28 0.17 0.26 0.57 0.79 0.71 0.62 0.61 0.70 0.85 0.85 0.68 0.60 0.66 0.75 0.88 0.96 0.88 0.75 0.64 0.50 0.36 0.29 0.26 0.21 0.17 0.12 0.09 0.08 0.09 0.09 0.08 0.07 0.08 0.10 0.11 0.11 0.13
0.17 0.26 0.31 0.39 0.56 0.60 0.20 0.17 0.37 0.50 0.48 0.52 0.51 0.49 0.51 0.51 0.51 0.51 0.55 0.63 0.71 0.78 0.77 0.70 0.60 0.49 0.38 0.31 0.28 0.24 0.19 0.14 0.10 0.09 0.09 0.08 0.07 0.04 0.04 0.09 0.11 0.11 0.14 0.16
0.08 0.15 0.29 0.43 0.51 0.41 0.21 0.19 0.23 0.29 0.38 0.38 0.37 0.34 0.37 0.39 0.43 0.43 0.46 0.54 0.62 0.64 0.60 0.51 0.40 0.35 0.30 0.27 0.25 0.23 0.18 0.12 0.11 0.13 0.13 0.09 0.07 0.05 0.04 0.07 0.10 0.12 0.14 0.13
0.09 0.08 0.14 0.25 0.28 0.26 0.24 0.24 0.21 0.21 0.25 0.25 0.25 0.27 0.34 0.39 0.39 0.36 0.37 0.40 0.44 0.43 0.39 0.36 0.32 0.28 0.24 0.20 0.17 0.17 0.13 0.11 0.16 0.19 0.16 0.13 0.13 0.09 0.05 0.06 0.06 0.08 0.09 0.09
0.16 0.23 0.29 0.30 0.32 0.36 0.35 0.29 0.24 0.21 0.18 0.17 0.21 0.25 0.27 0.28 0.28 0.26 0.27 0.28 0.28 0.26 0.25 0.25 0.22 0.19 0.15 0.11 0.09 0.07 0.06 0.08 0.15 0.17 0.14 0.12 0.09 0.08 0.10 0.08 0.04 0.03 0.04 0.02
0.14 0.35 0.70 0.50 0.41 0.51 0.46 0.35 0.30 0.28 0.26 0.24 0.20 0.19 0.21 0.20 0.17 0.16 0.17 0.18 0.17 0.16 0.14 0.13 0.12 0.10 0.08 0.06 0.06 0.05 0.03 0.04 0.09 0.12 0.11 0.10 0.07 0.07 0.09 0.12 0.11 0.03 0.01 0.00